CW4498 Weather Reports


time (UTC)temp
F
wind
direction
speed
knots
gust
knots
rain 1hr
in
rain 24hr
in
rain mn
in
humidity
%
barometer
mb
20260901113022 55 119 0.0 0.9 0.00 0.01 0.00 85 1020.9
20260901111521 55 120 0.0 0.9 0.00 0.01 0.00 85 1020.9
20260901110019 56 120 0.0 0.0 0.00 0.01 0.00 84 1021.0
20260901104521 56 112 0.0 2.6 0.00 0.01 0.00 84 1021.3
20260901103018 56 203 0.0 0.9 0.00 0.01 0.00 85 1021.3
20260901101517 56 202 0.0 0.9 0.00 0.01 0.00 84 1021.4
20260901100015 56 254 0.0 0.0 0.00 0.01 0.00 82 1021.4
20260901094513 57 254 0.0 0.9 0.00 0.01 0.00 82 1021.3
20260901093012 57 151 0.0 0.0 0.00 0.01 0.00 80 1021.4
20260901091511 58 151 0.0 0.9 0.00 0.01 0.00 78 1021.5
20260901090016 57 236 0.0 0.9 0.00 0.01 0.00 79 1021.6
20260901084509 57 236 0.0 0.9 0.00 0.01 0.00 80 1022.0
20260901083008 58 236 0.0 0.9 0.00 0.01 0.00 79 1022.1
20260901081508 58 236 0.0 0.0 0.00 0.01 0.00 78 1022.5
20260901080007 58 236 0.0 0.0 0.00 0.01 0.00 78 1022.7
20260901074506 58 129 0.0 0.0 0.00 0.01 0.00 78 1022.7
20260901073006 58 153 0.0 0.0 0.00 0.01 0.00 78 1022.7
20260901071504 57 153 0.0 0.0 0.00 0.01 0.00 78 1022.2
20260901070003 57 153 0.0 0.0 0.00 0.01 0.00 78 1022.1
20260901064503 57 153 0.0 0.0 0.00 0.01 0.00 78 1022.1
20260901063002 57 154 0.0 0.0 0.00 0.01 0.00 78 1022.1
20260901061600 58 154 0.0 0.9 0.00 0.01 0.00 77 1022.0
20260901060056 58 153 0.0 0.0 0.00 0.01 0.00 76 1022.0
20260901054557 59 154 0.0 0.0 0.00 0.01 0.01 74 1022.0
20260901053104 59 153 0.0 0.0 0.00 0.01 0.01 74 1022.0
20260901051605 60 153 0.0 0.0 0.00 0.01 0.01 73 1022.2
20260901050056 60 152 0.0 0.0 0.00 0.01 0.01 72 1022.4
20260901044604 59 264 0.0 0.9 0.00 0.04 0.01 74 1022.4
20260901043054 59 156 0.0 0.0 0.00 0.04 0.01 75 1022.8
20260901041616 60 164 0.0 0.9 0.00 0.04 0.01 73 1022.7
20260901040132 60 138 0.0 0.9 0.00 0.04 0.01 72 1022.6
20260901034553 60 273 0.0 0.0 0.00 0.07 0.01 72 1022.4
20260901033052 60 273 0.0 1.7 0.00 0.07 0.01 72 1022.4
20260901031554 60 290 0.0 0.9 0.00 0.07 0.01 73 1022.7
20260901030055 61 191 0.0 0.0 0.01 0.07 0.01 73 1022.2
20260901024554 63 191 0.0 2.6 0.01 0.07 0.01 68 1022.1
20260901023054 63 268 1.7 5.2 0.01 0.07 0.01 61 1021.8
20260901021549 63 277 3.5 13.0 0.01 0.07 0.01 64 1021.8
20260901020049 64 250 6.1 19.1 0.00 0.06 0.00 64 1021.7
20260901014548 70 276 4.3 14.8 0.00 0.06 0.00 47 1021.2
20260901013054 70 238 0.0 4.3 0.00 0.06 0.00 45 1020.6
20260901011547 70 116 0.9 4.3 0.00 0.06 0.00 43 1020.6
20260901010059 71 101 1.7 7.0 0.00 0.06 0.00 42 1020.5
20260901004547 72 122 4.3 9.6 0.00 0.06 0.00 40 1020.3
20260901003046 74 114 3.5 6.1 0.00 0.06 0.00 37 1020.2
20260901001545 74 96 3.5 10.4 0.00 0.06 0.00 36 1020.3
20260901000045 74 134 1.7 7.8 0.00 0.06 0.00 37 1020.4
20260831234544 75 103 3.5 8.7 0.00 0.06 0.00 36 1020.5
20260831233046 75 128 5.2 10.4 0.00 0.06 0.00 35 1020.5
20260831231542 76 150 4.3 11.3 0.00 0.06 0.00 35 1020.8
20260831230053 76 100 2.6 7.8 0.00 0.06 0.00 34 1021.0
20260831224541 76 126 3.5 8.7 0.00 0.06 0.00 34 1020.9
20260831223041 77 126 2.6 8.7 0.00 0.06 0.00 34 1021.0
20260831221545 77 121 2.6 7.0 0.00 0.06 0.00 34 1021.4
20260831220039 78 84 0.9 6.1 0.00 0.06 0.00 33 1021.6
20260831214544 78 109 0.0 2.6 0.00 0.06 0.00 33 1021.6
20260831213041 78 111 0.0 0.9 0.00 0.06 0.00 33 1021.7
20260831211538 78 111 0.0 0.9 0.00 0.06 0.00 31 1022.1
20260831210037 78 117 0.0 2.6 0.00 0.06 0.00 32 1022.2
20260831204538 78 142 0.9 2.6 0.00 0.06 0.00 31 1022.3
20260831203034 77 126 0.0 3.5 0.00 0.06 0.00 32 1022.4
20260831201534 78 115 0.0 2.6 0.00 0.06 0.00 33 1022.7
20260831200031 74 114 0.0 1.7 0.00 0.06 0.00 33 1023.0
20260831194530 74 115 0.0 0.9 0.00 0.06 0.00 35 1023.0
20260831193035 74 109 0.0 1.7 0.00 0.06 0.00 34 1023.1
20260831191530 74 111 0.0 1.7 0.00 0.06 0.00 34 1023.1
20260831190029 74 106 0.0 3.5 0.00 0.06 0.00 32 1023.4
20260831184529 74 95 0.9 5.2 0.00 0.06 0.00 33 1023.6
20260831183029 75 115 0.0 1.7 0.00 0.06 0.00 33 1023.6
20260831181524 74 116 0.0 1.7 0.00 0.06 0.00 36 1023.7
20260831180023 74 109 0.9 3.5 0.00 0.06 0.00 39 1023.8
20260831174522 74 116 1.7 2.6 0.00 0.06 0.00 39 1023.7
20260831173021 73 112 0.0 2.6 0.00 0.06 0.00 40 1023.8
20260831171520 72 128 0.0 1.7 0.00 0.06 0.00 41 1024.1
20260831170034 73 151 0.0 2.6 0.00 0.06 0.00 42 1024.2
20260831164523 73 137 0.9 3.5 0.00 0.06 0.00 40 1024.2
20260831163016 72 118 0.0 1.7 0.00 0.06 0.00 42 1024.0
20260831161511 71 165 0.0 0.9 0.00 0.06 0.00 47 1023.9
20260831160008 69 166 0.0 0.9 0.00 0.06 0.00 44 1024.0
20260831154516 68 275 0.0 1.7 0.00 0.06 0.00 47 1023.8
20260831153100 66 125 0.0 0.0 0.00 0.06 0.00 61 1023.8
20260831151609 64 125 0.0 0.0 0.00 0.06 0.00 65 1023.7
20260831150055 63 125 0.0 0.0 0.00 0.06 0.00 66 1023.7
20260831144554 63 125 0.0 0.9 0.00 0.06 0.00 67 1023.8
20260831143050 62 313 0.0 0.9 0.00 0.06 0.00 66 1023.8
20260831141548 60 313 0.0 0.0 0.00 0.06 0.00 66 1023.9
20260831140054 59 313 0.0 0.0 0.00 0.06 0.00 69 1023.9
20260831134547 58 313 0.0 0.0 0.00 0.06 0.00 69 1023.7
20260831133048 58 313 0.0 1.7 0.00 0.06 0.00 68 1023.6
20260831131545 58 110 0.9 2.6 0.00 0.06 0.00 67 1023.5
20260831130049 58 122 0.0 2.6 0.00 0.06 0.00 65 1023.3
20260831124546 58 128 0.9 2.6 0.00 0.06 0.00 63 1023.1
20260831123044 59 159 0.0 2.6 0.00 0.06 0.00 62 1022.7
20260831121545 58 265 0.0 0.0 0.00 0.06 0.00 61 1022.4
20260831120043 58 265 0.0 0.0 0.00 0.06 0.00 60 1022.5
20260831114542 57 120 0.0 0.0 0.00 0.06 0.00 63 1022.6